This is the latest recevied weather packets stored in our database for station/object JS1SZZ-13. If no packets are shown the sender has not sent any weather packets the latest 10 day(s).
| Time | Temp. | Humidity | Pressure | Rain* | Wind** | Luminosity | Snow |
|---|---|---|---|---|---|---|---|
| 1787918258 | 21.11° C | 89% | 1010.9 hPa | 0 mm | - | - | - |
| 1787917358 | 21.11° C | 89% | 1011.1 hPa | 0 mm | - | - | - |
| 1787916459 | 21.11° C | 88% | 1010.9 hPa | 0 mm | - | - | - |
| 1787915559 | 21.11° C | 88% | 1010.6 hPa | 0 mm | - | - | - |
| 1787914658 | 21.67° C | 90% | 1010.8 hPa | 0 mm | - | - | - |
| 1787913759 | 21.67° C | 89% | 1010.5 hPa | 0 mm | - | - | - |
| 1787912859 | 21.67° C | 89% | 1010.4 hPa | 0 mm | - | - | - |
| 1787911960 | 21.67° C | 88% | 1010.1 hPa | 0 mm | - | - | - |
| 1787911059 | 22.22° C | 87% | 1010.2 hPa | 0 mm | - | - | - |
| 1787910159 | 22.22° C | 86% | 1010.1 hPa | 0 mm | - | - | - |
| 1787909258 | 22.22° C | 84% | 1010.3 hPa | 0 mm | - | - | - |
| 1787908360 | 22.78° C | 82% | 1010.1 hPa | 0 mm | - | - | - |
| 1787907459 | 23.33° C | 80% | 1010.2 hPa | 0 mm | - | - | - |
| 1787906558 | 23.89° C | 79% | 1009.9 hPa | 0 mm | - | - | - |
| 1787905660 | 24.44° C | 77% | 1009.6 hPa | 0 mm | - | - | - |
| 1787904759 | 25° C | 74% | 1009.8 hPa | 0 mm | - | - | - |
| 1787903858 | 25.56° C | 70% | 1009.8 hPa | 0 mm | - | - | - |
| 1787902958 | 26.11° C | 69% | 1009.4 hPa | 0 mm | - | - | - |
| 1787902059 | 26.11° C | 62% | 1009.3 hPa | 0 mm | - | - | - |
| 1787901159 | 26.11° C | 63% | 1009 hPa | 0 mm | - | - | - |
| 1787900259 | 26.67° C | 60% | 1009 hPa | 0 mm | - | - | - |
| 1787899359 | 26.67° C | 61% | 1009 hPa | 0 mm | - | - | - |
| 1787898458 | 26.67° C | 57% | 1008.9 hPa | 0 mm | - | - | - |
| 1787897559 | 26.67° C | 58% | 1008.8 hPa | 0 mm | - | - | - |
| 1787896659 | 26.67° C | 58% | 1008.6 hPa | 0 mm | - | - | - |
* Rain latest hour (hover to see other rain measurements)
** Current wind speed in m/s (hover to see current wind gust speed)